Volver al catálogo

WILDFIRE 9

ActivoCienciaPO
NORAD 57765·PAYLOAD·🇺🇸 United States

Lanzado Sep 2, 2023 desde Vandenberg Space Force Base

Loading…

Próximos Pases (próximas 24 horas)

TLE

ActualizadoSource: Space-Track

Época: Sep 13, 2026, 19:39 UTC

1 57765U 23133J   26256.81880342  .00000010  00000-0 -13743-5 0  9992
2 57765  81.0008 282.9097 0006989 129.4716 230.7060 13.85439862153295

Sigue WILDFIRE 9 en tiempo real con AllMySat

Download on the App Store